Regional Weather Roundup
Issued by NWS Cleveland, OH

Home | Current Version | Previous Version | Graphics & Text | Print | Product List | Glossary On
Versions: 1 2 3 4 5 6 7 8 9 10 11 12 13 14 15 16 17 18 19 20 21 22 23 24 25 26 27 28 29 30 31 32 33 34 35 36 37 38 39 40 41 42 43 44 45 46 47 48 49 50
000
ASUS41 KCLE 262302
RWRCLE
OHIO REGIONAL WEATHER ROUNDUP
NATIONAL WEATHER SERVICE CLEVELAND, OH
700 PM EDT THU MAY 26 2016

NOTE: "FAIR" INDICATES FEW OR NO CLOUDS BELOW 12,000 FEET WITH NO
SIGNIFICANT WEATHER AND/OR OBSTRUCTIONS TO VISIBILITY.

OHZ001>008-015>018-024>027-034-035-043-044-270000-
   NORTHWEST OHIO

CITY           SKY/WX    TMP DP  RH WIND       PRES   REMARKS
DEFIANCE       MOSUNNY   84  64  50 S12       29.91S
FINDLAY        MOSUNNY   81  63  54 SW16      29.93S
TOLEDO EXPRESS MOSUNNY   83  64  52 SW9       29.90S
TOLEDO EXEC    SUNNY     83  64  52 SW12      29.91S
LIMA           PTSUNNY   79  65  62 S14       29.94F
$$

OHZ009>014-019>023-028>033-038-089-270000-
   NORTHEAST OHIO

CITY           SKY/WX    TMP DP  RH WIND       PRES   REMARKS
CLE-HOPKINS    CLOUDY    83  62  49 S13       29.96S
CLE-LAKEFRONT  PTSUNNY   83  63  50 S9        29.92S
CUY CO. ARPT   PTSUNNY   82  64  54 S10       29.95F
LORAIN-ELYRIA  CLOUDY    82  63  52 SW13      29.94S
ASHTABULA      CLOUDY    80  62  54 S9        29.97S
AKRON-CANTON   PTSUNNY   79  64  60 SW14      29.98F
WOOSTER        MOSUNNY   80  65  59 S12       29.98S
MANSFIELD      MOSUNNY   78  66  66 S15G23    29.98S
YOUNGSTOWN     PTSUNNY   79  62  56 S9        29.98F
$$

OHZ042-051>053-060>062-070>072-077>081-270000-
  SOUTHWEST OHIO

CITY           SKY/WX    TMP DP  RH WIND       PRES   REMARKS
CINC-COVINGTON CLOUDY    70  66  87 S10       30.00F
CINC-LUNKEN    CLOUDY    70  68  93 S6        29.99F
HAMILTON       CLOUDY    74  65  73 VRB5      29.99F
DAYTON         CLOUDY    76  66  71 S12       29.98F
WRIGHT-PAT AFB NOT AVBL
DAYTON GENERAL PTSUNNY   73  60  63 SW13      29.98F
WILMINGTON     CLOUDY    74  67  78 SW12      29.99R
$$

OHZ036-037-039>041-045>050-054>059-063>069-073>076-082>088-270000-
  CENTRAL AND SOUTHEAST OHIO

CITY           SKY/WX    TMP DP  RH WIND       PRES   REMARKS
COLUMBUS       CLOUDY    78  66  66 S12       29.98S
OSU AIRPORT    CLOUDY    79  66  64 S12       29.97F
BOLTON FIELD   NOT AVBL
RICKENBACK AFB NOT AVBL
NEWARK         MOSUNNY   79  65  62 S13       30.00R
MARION         MOSUNNY   80  65  59 S16       29.96F
LANCASTER      CLOUDY    77  65  66 S13       30.01R
ZANESVILLE     MOSUNNY   80  66  62 S15       30.00F
NEW PHILLY     CLOUDY    82  64  54 VRB5      30.00R
$$




USA.gov is the U.S. government's official web portal to all federal, state and local government web resources and services.